Cocoa Beach, FL

1:21 AM EST on February 19, 2018 (GMT -0500)
Patrick Air Force Base

Weather History for KCOF - June, 2014

Change the Weather History Date:

Tuesday, June 10, 2014

  Actual Average Record
Temperature  
Mean Temperature 82 °F -  
Max Temperature 87 °F 84 °F 92 °F (2007)
Min Temperature 75 °F 73 °F 71 °F (2015)
Cooling Degree Days 16    
Growing Degree Days 32 (Base 50)    
Moisture  
Dew Point 73 °F    
Average Humidity 78    
Maximum Humidity 92    
Minimum Humidity 64    
Precipitation  
Precipitation 0.00 in - - ()
Sea Level Pressure  
Sea Level Pressure 30.02 in    
Wind  
Wind Speed 8 mph (South)    
Max Wind Speed 17 mph    
Max Gust Speed -    
Visibility 10 miles    
Events      
Averages and records for this station are not official NWS values.
T = Trace of Precipitation, MM = Missing Value Source: NWS Daily Summary

Daily Weather History Graph

Daily Weather History Graph

Search for Another Location

Airport or City:

Trip Planner

Search our weather history database for the weather conditions in past years. The results will help you decide how hot, cold, wet, or windy it might be!

Date:

Astronomy

Jun. 10, 2014 Rise Set
Actual Time 6:24 AM EDT 8:19 PM EDT
Civil Twilight 5:58 AM EDT 8:45 PM EDT
Nautical Twilight 5:25 AM EDT 9:18 PM EDT
Astronomical Twilight 4:51 AM EDT 9:52 PM EDT
Moon 5:53 PM EDT (6/10) 4:16 AM EDT (6/10)
Length of Visible Light 14h 47m
Length of Day
13h 54m
Waxing Gibbous, 92% of the Moon is Illuminated
Jun 10
Waxing Gibbous
Jun 13
Full
Jun 19
Last Quarter
Jun 27
New
Jul 5
First Quarter

Hourly Weather History & Observations

Time (EDT) Temp. Heat Index Dew Point Humidity Pressure Visibility Wind Dir Wind Speed Gust Speed Precip Events Conditions
12:58 AM 80.4 °F 85.8 °F 75.2 °F 84% 30.01 in 10.0 mi SSE 5.8 mph - N/A   Clear
1:58 AM 80.2 °F 84.7 °F 73.6 °F 80% 30.01 in 10.0 mi South 10.4 mph - N/A   Clear
2:58 AM 78.4 °F - 73.2 °F 84% 29.99 in 10.0 mi South 5.8 mph - N/A   Clear
3:58 AM 77.7 °F - 73.8 °F 88% 29.99 in 10.0 mi South 4.6 mph - N/A   Clear
4:58 AM 77.0 °F - 73.8 °F 90% 29.99 in 10.0 mi SSW 5.8 mph - N/A   Clear
5:58 AM 77.0 °F - 74.3 °F 91% 30.01 in 10.0 mi SSE 3.5 mph - N/A   Clear
6:58 AM 77.0 °F - 74.5 °F 92% 30.01 in 10.0 mi SSW 10.4 mph - N/A   Clear
7:58 AM 78.4 °F - 75.0 °F 89% 30.03 in 10.0 mi SSW 9.2 mph - N/A   Clear
8:58 AM 80.8 °F 86.3 °F 74.7 °F 82% 30.04 in 10.0 mi SW 5.8 mph - N/A   Clear
9:58 AM 84.6 °F 91.7 °F 73.8 °F 70% 30.03 in 10.0 mi SW 4.6 mph - N/A   Clear
10:58 AM 85.6 °F 95.0 °F 75.7 °F 72% 30.03 in 10.0 mi ESE 9.2 mph - N/A   Clear
11:58 AM 86.2 °F 96.9 °F 76.5 °F 73% 30.03 in 10.0 mi SE 10.4 mph - N/A   Clear
12:58 PM 87.1 °F 98.8 °F 77.2 °F 72% 30.01 in 10.0 mi SE 12.7 mph - N/A   Clear
1:58 PM 86.9 °F 98.8 °F 77.4 °F 73% 30.01 in 10.0 mi ESE 15.0 mph - N/A   Partly Cloudy
2:58 PM 86.5 °F 98.3 °F 77.2 °F 74% 29.99 in 10.0 mi SE 12.7 mph - N/A   Clear
3:58 PM 84.7 °F 93.2 °F 75.2 °F 73% 29.99 in 10.0 mi SE 15.0 mph - N/A   Clear
4:58 PM 86.4 °F 95.1 °F 74.7 °F 68% 29.99 in 10.0 mi SSE 17.3 mph - N/A   Clear
5:58 PM 83.7 °F 88.0 °F 70.2 °F 64% 29.99 in 10.0 mi SW 8.1 mph - N/A   Partly Cloudy
6:58 PM 81.3 °F 84.3 °F 68.5 °F 65% 30.04 in 10.0 mi SW 8.1 mph - N/A   Mostly Cloudy
7:58 PM 79.3 °F - 70.0 °F 73% 30.04 in 10.0 mi WNW 12.7 mph - N/A   Scattered Clouds
8:58 PM 77.7 °F - 69.8 °F 76% 30.04 in 10.0 mi West 8.1 mph - N/A   Clear
9:58 PM 77.0 °F - 69.8 °F 78% 30.04 in 10.0 mi West 1.2 mph - N/A   Clear
10:58 PM 76.6 °F - 69.8 °F 79% 30.04 in 10.0 mi South 4.6 mph - N/A   Clear
11:58 PM 75.9 °F - 69.8 °F 81% 30.03 in 10.0 mi South 5.8 mph - N/A   Clear